Hourly Data Report for October 29, 2014

All times are specified in Local Standard Time (LST). Add 1 hour to adjust for Daylight Saving Time where and when it is observed.

PETAWAWA AWOS 2
ONTARIO

45°57'00.000" N
77°19'00.000" W
130.10 m
6106396
71625
YWA

Download Data

Hourly Data (October 2014)
Hourly Data Report for October 29, 2014
Temp Definition
°C
Dew Point Temp Definition
°C
Rel Hum Definition
%
Wind Dir Definition
10's deg

Wind Spd Definition
km/h
Visibility Definition
km
Stn Press Definition
kPa
Hmdx Definition


Wind Chill Definition


Weather Definition


TIME
00:00 8.0 5.9 87 23 6 12.9 99.13     LegendNANA
01:00
02:00 6.1 4.2 88 21 6 8.0 99.14     LegendNANA
03:00 7.3 5.4 88 25 4 9.7 99.13     LegendNANA
04:00 5.3 3.4 88 21 6 0.3 99.13     LegendNANA
05:00 7.8 5.1 83 21 6 9.7 99.10     LegendNANA
06:00 8.4 5.4 81 26 6 14.5 99.13     LegendNANA
07:00 7.9 4.5 79 24 6 14.5 99.18     LegendNANA
08:00 7.9 4.5 79 22 6 14.5 99.22     LegendNANA
09:00 8.2 4.7 79 21 6 14.5 99.22     Rain
10:00 10.6 5.1 69 25 9 14.5 99.20     LegendNANA
11:00 10.4 3.7 63 23 15 14.5 99.20     LegendNANA
12:00 10.7 3.6 62 23 13 14.5 99.19     LegendNANA
13:00 10.2 3.8 64 25 19 14.5 99.17     LegendNANA
14:00 8.3 3.4 71 25 13 14.5 99.21     Rain
15:00 10.0 3.1 62 25 15 14.5 99.21     LegendNANA
16:00 9.3 3.7 68 24 9 14.5 99.24     LegendNANA
17:00 8.4 2.8 68 28 13 14.5 99.30     Rain
18:00 8.1 2.4 67 28 7 14.5 99.40     LegendNANA
19:00 7.3 2.0 69 28 9 14.5 99.47     LegendNANA
20:00 6.8 2.1 72 30 6 14.5 99.51     LegendNANA
21:00 6.6 2.4 74 30 11 14.5 99.59     Drizzle
22:00 5.1 0.4 72 32 11 14.5 99.67     LegendNANA
23:00                    

Notes on Data Quality.

Legend

  • E = Estimated
  • M = Missing
  • NA = Not Available
  • ‡ = Partner data that is not subject to review by the National Climate Archives
Date modified: